User: anonymous   Login
Location: Haut Kerinec
(48.0623°N, 4.4081°W)
Time: 13:18:17
(UTC+00:00)
Language:

STARLINK-1254 - Orbit

View from above orbital plane
View from above orbital plane
View from above satellite
View from above satellite

Ground track
Ground track

The orbit data is extracted from the following two-line orbital elements,

1 45216C 20012AQ  21016.91042348  .00006339  00000-0  42481-3 0   167
2 45216  53.0560 176.2784 0001625  80.9851  38.3985 15.06386737    12
Epoch (UTC): 16 January 2021 21:51:00
Eccentricity: 0.0001625
inclination: 53.0560°
perigee height: 546 km
apogee height: 548 km
right ascension of ascending node: 176.2784°
argument of perigee: 80.9851°
revolutions per day: 15.06386737
mean anomaly at epoch: 38.3985°
orbit number at epoch: 1

The dashed part of the orbit path shows where the satellite is in the earth's shadow,  

DLR